Location: Unspecified
(0.0000°N, 0.0000°E)
Time: 22:41:34
(UTC+00:00)

DMSP 5D-3 F18 (USA 210) - Visible Passes

Search period start: 24 April 2019 00:00
Search period end: 04 May 2019 00:00
Orbit: 840 x 857 km, 98.6° (Epoch: 23 April)

Date Brightness Start Highest point End Pass type
(mag) Time Alt. Az. Time Alt. Az. Time Alt. Az.
24 Apr 4.7 05:31:04 10° N 05:36:29 73° WNW 05:41:58 10° SSW visible
24 Apr 7.4 18:16:23 10° SSW 18:20:34 22° WSW 18:24:45 10° NW visible
25 Apr 4.8 05:18:36 10° NNE 05:24:02 82° ESE 05:29:32 10° S visible
26 Apr 5.4 05:06:15 10° NNE 05:11:36 59° ESE 05:16:59 10° S visible
27 Apr 6.0 04:54:03 10° NNE 04:59:09 42° ESE 05:04:18 10° S visible
28 Apr 6.6 04:42:01 10° NE 04:46:43 30° ESE 04:51:27 10° SSE visible
29 Apr 7.1 04:30:12 10° NE 04:34:18 22° ESE 04:38:23 10° SSE visible
30 Apr 7.4 04:18:45 10° ENE 04:21:52 15° ESE 04:24:59 10° SE visible
30 Apr 8.0 18:45:28 10° WSW 18:46:16 10° WSW 18:47:04 10° W visible
01 May 7.7 04:08:24 10° E 04:09:26 11° ESE 04:10:29 10° ESE visible
01 May 7.5 18:30:47 10° SW 18:33:51 15° WSW 18:36:55 10° WNW visible
02 May 4.7 05:31:55 10° N 05:37:20 70° WNW 05:42:49 10° SSW visible
02 May 7.3 18:17:21 10° SSW 18:21:25 21° WSW 18:25:29 10° NW visible
03 May 4.8 05:19:25 10° NNE 05:24:53 85° ESE 05:30:24 10° S visible
